Temperature
21 19 17 17 16 16 16 16 16 16 16 16 16 16 15 15 15 15 15 15 14 14 14 14 13 13 13 13 14 14 14 14 14 14 14 14 14 13 13 13 13 12 12
22 19 17 17 17 16 16 16 16 16 16 16 16 16 15 15 15 15 15 15 14 14 14 13 13 13 13 13 14 14 14 14 14 14 14 14 14 13 13 13 13 12 12
21 19 17 17 16 16 16 16 16 16 16 16 16 16 16 16 15 15 15 14 14 14 14 13 13 13 13 14 14 14 14 14 14 14 14 14 14 13 13 13 13 12 12
21 19 17 17 16 16 16 16 16 16 16 16 16 16 16 16 16 15 15 14 14 14 14 13 13 13 13 13 14 14 13 13 13 13 13 13 13 13 13 13 13 13 13
20 19 18 17 16 16 17 17 16 16 16 16 16 16 16 16 16 15 15 15 14 14 14 14 14 13 14 13 14 14 13 13 13 13 13 13 13 13 13 13 13 13 13
20 19 18 17 17 17 17 17 17 17 17 16 16 16 16 16 16 16 15 15 14 14 14 14 14 14 14 14 14 14 13 13 13 13 13 13 13 12 13 13 13 13 13
19 19 18 17 17 17 17 17 17 17 17 17 16 16 16 16 16 16 16 15 15 14 14 14 14 14 14 14 14 13 13 13 13 13 13 12 12 12 12 12 12 12 12
19 18 18 17 17 17 17 17 17 17 17 17 16 16 16 16 16 16 16 15 15 15 14 14 14 14 14 14 14 13 13 13 13 12 12 12 12 12 12 12 12 12 12
18 18 18 18 17 17 17 17 17 17 17 17 16 16 16 16 16 16 16 15 15 15 14 14 14 14 14 14 13 13 13 12 12 12 12 12 12 12 12 12 12 12 12
17 17 18 18 18 18 18 18 18 17 17 17 16 16 16 15 15 15 15 15 15 15 14 14 14 14 14 13 13 13 13 12 12 12 12 12 11 11 12 11 11 11 11
17 17 17 18 18 18 18 18 18 17 17 16 16 16 15 15 15 15 15 15 14 14 14 14 13 13 13 13 13 13 12 12 12 12 12 11 11 11 11 11 11 11 11
17 17 17 17 18 18 18 18 18 18 17 17 16 16 15 15 15 14 14 14 14 14 14 13 13 13 13 13 13 13 12 12 12 12 12 11 11 11 11 11 10 10 10
18 18 18 17 17 17 17 17 18 18 17 17 16 16 16 15 14 14 14 14 14 13 13 13 13 13 13 13 12 12 12 12 12 12 11 11 10 10 10 10 10 10 10
18 18 18 17 17 17 17 17 17 17 17 17 17 16 15 15 15 14 14 14 14 13 13 13 13 13 12 12 12 12 12 12 12 12 11 11 10 10 10 10 10 9 9
18 18 18 18 17 17 17 17 16 17 17 17 17 16 16 15 15 14 14 13 13 13 13 13 12 12 12 12 12 12 12 12 12 12 11 11 10 10 9 9 9 9 9
18 18 18 18 17 17 17 17 17 16 16 16 16 16 16 15 15 14 14 13 13 13 13 12 12 12 12 12 12 12 12 12 12 11 11 10 10 9 9 9 9 9 8
17 17 17 17 17 17 17 17 16 16 16 16 16 16 16 16 15 14 14 13 13 13 12 12 12 12 11 12 12 12 12 12 12 11 11 10 10 9 9 9 8 8 8
17 17 17 17 17 17 17 17 17 16 16 16 16 16 15 15 15 14 14 13 13 12 12 12 12 11 11 11 11 12 12 12 11 11 11 10 9 9 8 8 8 8 7
17 17 17 17 17 17 17 17 17 17 16 16 16 15 15 15 15 14 14 13 13 12 12 12 11 11 11 11 11 11 11 11 11 11 11 10 9 9 8 8 8 7 7
17 17 17 17 17 17 17 17 17 16 16 16 16 16 15 15 15 14 14 13 13 12 12 12 11 11 11 11 11 11 11 11 11 11 10 10 9 8 8 8 7 7 7
16 17 17 17 17 17 17 17 17 16 16 16 16 16 16 15 15 15 14 14 13 12 12 12 11 11 11 11 11 11 11 11 11 11 10 10 9 8 8 7 7 7 7
16 16 16 16 16 16 17 17 17 17 17 17 17 16 16 16 15 15 15 14 14 13 12 12 11 11 11 11 11 11 10 10 11 11 10 10 9 8 8 7 6 6 6
16 16 16 16 16 16 16 16 16 16 16 16 16 16 16 16 16 15 15 15 14 14 13 13 12 11 11 11 11 11 11 11 11 10 10 10 9 8 7 7 6 6 5
15 15 15 16 16 16 16 16 16 16 15 16 16 16 16 16 16 16 15 15 15 14 14 13 12 12 11 11 11 11 10 11 10 10 9 9 9 8 7 6 6 5 5
14 15 15 15 15 15 15 15 15 15 15 15 15 15 16 16 16 15 15 15 15 14 14 13 13 12 11 11 11 11 10 10 10 9 9 9 8 8 7 6 5 5 4
14 14 14 15 15 15 15 15 15 15 15 15 15 15 15 15 15 15 15 15 15 14 14 14 13 12 11 11 10 10 10 10 9 9 8 8 7 7 6 5 5 4 4
Wind_Speed
6 9 17 17 16 16 16 16 17 17 17 16 15 14 13 12 10 9 8 7 8 9 10 12 14 15 14 14 13 13 13 13 12 12 11 11 10 10 9 9 8 7 8
9 13 18 18 17 16 16 16 17 17 16 15 14 13 12 10 9 8 8 8 8 9 11 13 14 14 14 13 13 13 12 11 10 9 9 8 7 8 8 7 6 5 6
11 14 18 18 17 17 17 17 17 17 16 15 14 12 11 10 9 9 9 9 9 10 11 13 14 14 13 13 12 12 11 10 8 7 6 5 4 6 7 5 4 4 4
13 14 16 18 18 17 17 17 17 16 15 14 13 12 11 11 10 10 10 10 11 12 13 14 13 13 12 12 11 11 10 9 7 6 5 3 3 4 5 4 4 4 3
11 13 16 19 18 17 17 17 17 16 16 14 13 12 11 11 11 11 10 11 12 12 13 13 12 12 11 11 10 9 8 7 7 7 4 2 3 3 5 4 4 3 2
9 13 17 19 18 17 17 17 17 17 16 15 14 13 12 11 11 11 11 11 11 12 11 11 11 10 10 9 8 7 7 7 8 7 4 2 3 3 7 7 6 5 6
9 12 16 18 17 17 16 16 16 17 16 16 15 13 12 12 11 11 11 10 10 10 10 9 9 9 8 8 7 6 6 7 8 6 3 2 3 6 9 10 11 12 13
10 10 15 17 17 16 16 16 16 16 17 16 15 14 13 12 12 11 11 10 9 9 9 8 8 7 7 6 6 6 7 8 8 6 4 3 4 8 11 13 14 15 16
8 8 11 14 15 15 15 15 16 16 17 17 15 14 13 12 12 12 11 10 9 8 8 7 7 6 6 6 6 6 7 8 9 6 4 4 6 9 11 13 15 16 16
7 7 8 11 13 13 14 15 15 16 17 17 16 14 13 13 12 12 11 9 8 8 7 6 6 5 6 6 6 7 8 9 8 6 5 5 8 10 11 12 13 14 14
10 7 6 8 10 12 12 13 14 15 17 17 16 15 13 12 12 11 11 9 8 7 6 5 5 6 7 8 8 9 9 9 8 6 5 6 9 11 11 12 12 12 12
14 12 7 7 8 10 11 11 12 13 14 14 13 14 13 12 11 10 11 10 8 7 6 5 6 7 7 7 8 9 9 9 8 6 5 8 10 11 12 12 12 11 11
14 13 11 9 8 9 7 9 9 10 11 12 13 14 13 11 9 9 9 8 7 6 4 5 6 7 6 7 7 8 8 8 7 6 6 9 11 11 11 11 10 10 9
12 14 12 11 8 8 8 7 8 8 9 9 12 15 12 8 7 7 8 8 7 6 6 5 6 6 7 7 8 8 8 7 7 7 7 11 12 11 10 9 9 8 8
12 13 13 12 12 9 7 6 8 8 9 11 13 14 14 9 6 7 7 8 8 8 7 6 6 7 6 7 7 8 7 7 7 8 10 12 12 11 9 8 8 7 7
13 14 13 14 13 11 10 8 7 10 11 13 13 15 16 13 10 7 6 7 8 9 9 8 8 7 5 6 5 6 7 7 8 9 10 11 12 10 9 8 7 7 7
12 12 13 14 14 14 13 11 9 11 13 12 13 16 17 16 13 10 6 6 9 11 10 8 7 6 5 4 4 5 6 7 8 8 9 10 10 10 8 8 7 7 6
9 11 14 14 15 16 15 12 10 11 12 12 14 16 18 18 17 12 7 7 11 12 10 6 5 4 4 4 3 3 4 5 6 7 8 9 9 8 8 7 6 5 5
10 10 12 13 15 17 17 13 11 10 11 12 14 15 17 19 19 14 9 9 13 10 7 6 4 4 4 4 4 3 2 3 4 6 6 7 8 8 7 6 6 4 3
10 10 10 11 14 14 13 11 9 10 10 10 12 14 17 18 20 16 10 11 12 7 7 7 5 3 4 5 4 3 2 1 3 4 5 6 6 6 6 5 5 3 2
8 10 10 10 12 10 9 12 12 14 13 12 12 16 18 18 19 16 9 10 10 11 11 10 6 5 3 4 4 2 2 1 2 2 4 4 5 6 6 5 4 2 1
9 9 10 11 11 11 11 11 9 10 10 12 10 11 17 17 18 16 13 12 12 10 11 11 7 5 4 5 4 3 2 2 2 1 2 4 4 5 5 5 4 2 1
8 8 8 10 10 11 11 7 4 5 3 6 8 11 13 17 18 16 15 13 13 13 13 14 12 10 6 4 3 4 5 6 3 1 1 2 3 3 4 5 4 2 1
6 6 7 8 8 9 9 8 10 11 12 12 12 13 13 15 16 17 15 14 14 13 13 14 12 8 8 6 3 1 2 3 4 3 1 1 2 3 4 3 4 3 2
6 5 4 5 6 7 8 10 11 13 12 9 8 10 11 11 13 14 14 13 14 12 13 13 12 10 7 7 6 4 3 2 1 3 3 2 1 2 2 2 3 4 4
8 7 6 5 5 5 6 8 11 13 12 10 9 11 11 9 10 12 12 13 13 11 12 12 12 12 8 7 6 5 4 4 3 3 3 2 2 1 1 1 3 5 5
Wind_Direction
174 168 164 158 156 155 153 150 145 138 133 129 125 121 118 116 113 111 115 120 129 135 133 125 115 106 99 94 93 92 89 86 84 79 73 72 80 89 90 87 72 65 79
150 161 161 159 157 157 155 149 143 138 135 131 126 124 121 119 117 115 117 122 127 130 126 120 112 105 101 98 97 96 92 88 86 81 70 60 64 89 95 92 86 84 84
142 158 158 158 157 156 152 146 142 140 137 134 131 129 127 126 123 117 116 116 121 123 118 112 106 102 101 101 100 96 90 85 86 89 82 65 54 92 99 102 99 92 88
146 154 156 158 158 155 150 147 146 144 142 140 137 134 133 132 129 120 113 107 106 111 109 106 103 104 104 104 102 96 87 81 86 97 98 70 22 83 101 98 91 90 83
144 150 156 156 157 154 152 151 151 150 148 145 142 140 139 138 134 126 118 110 107 108 109 108 106 107 107 107 105 96 84 81 91 106 108 73 7 57 88 84 77 73 60
139 148 157 156 157 157 156 157 158 157 153 151 148 146 145 143 139 131 125 118 115 114 114 114 114 114 113 112 106 93 81 89 104 112 106 47 342 40 73 74 71 66 63
139 147 157 158 160 161 163 164 165 163 159 157 155 153 151 148 143 138 133 129 126 125 125 124 123 122 120 115 107 94 89 104 116 116 96 18 5 68 69 68 68 67 68
144 147 159 161 163 166 170 172 172 169 165 162 162 159 156 152 148 147 146 143 142 139 136 132 131 128 124 115 106 98 102 114 118 113 84 41 52 77 76 75 71 69 68
140 146 156 161 165 170 174 177 179 175 170 168 168 165 160 156 154 155 155 155 152 147 142 138 136 131 120 107 100 99 108 119 116 107 80 58 74 83 80 78 75 71 68
147 153 157 159 165 171 178 182 185 181 176 174 174 170 165 163 163 164 165 166 161 155 149 145 140 128 108 96 97 103 113 118 114 104 84 80 87 88 85 82 78 73 68
173 174 165 164 169 172 177 184 186 184 181 179 179 175 169 169 171 172 175 178 173 164 159 154 142 117 96 89 96 107 113 116 115 102 94 98 99 96 92 87 81 76 71
189 190 183 178 175 174 180 182 182 182 184 183 180 175 171 173 176 178 184 188 183 173 167 160 137 113 104 98 98 108 112 115 112 102 107 111 108 103 98 91 86 79 73
192 195 196 190 183 179 180 177 179 180 181 182 180 177 174 174 178 177 182 191 188 174 156 140 116 114 115 116 113 113 118 116 111 105 116 117 116 111 105 97 90 82 74
197 201 200 196 191 189 186 182 182 182 181 182 184 181 175 172 176 176 178 181 177 168 154 139 127 123 118 120 125 124 123 121 117 111 117 119 120 116 110 102 93 84 75
210 208 206 201 199 194 191 190 191 192 192 190 189 189 185 180 180 183 185 184 182 175 165 152 141 134 126 123 127 132 130 129 123 114 115 120 121 121 117 108 96 83 72
217 216 210 209 205 199 201 200 196 198 198 196 197 195 193 190 187 185 186 186 186 183 176 165 154 144 135 130 122 131 136 136 130 123 120 121 123 125 123 114 99 83 68
216 217 214 213 207 206 207 205 204 202 201 204 205 201 198 196 193 191 189 189 191 184 168 152 139 132 127 124 118 130 139 145 142 137 132 127 126 128 129 121 107 89 68
221 216 217 215 210 211 211 208 208 204 204 209 208 206 204 202 198 194 193 195 189 177 164 151 143 131 137 140 139 137 139 150 154 152 145 140 136 133 135 130 118 97 69
229 223 218 215 211 212 212 210 209 205 207 210 208 209 208 205 200 197 197 192 181 173 168 164 153 146 154 156 147 126 123 150 164 164 160 157 153 149 142 139 124 103 66
235 229 226 220 218 214 211 210 210 210 213 211 211 213 208 206 201 198 196 186 178 174 173 168 153 135 141 148 127 100 80 139 166 177 181 176 174 168 161 149 139 113 53
236 230 228 224 223 213 204 208 213 217 217 215 216 214 209 205 199 197 194 184 182 186 184 172 149 144 139 143 120 97 34 55 166 188 186 182 187 184 177 171 164 155 17
234 228 227 226 226 216 211 209 210 213 218 218 216 212 210 205 200 198 194 191 189 185 178 177 160 149 149 168 150 138 203 288 252 184 183 188 189 179 177 179 175 177 266
251 239 233 228 228 224 217 208 195 191 201 206 212 215 211 206 202 200 197 192 190 187 189 187 179 165 164 183 191 159 166 214 204 244 217 184 181 174 175 174 172 179 192
276 264 246 238 234 230 217 206 203 209 216 216 215 217 211 205 203 201 197 195 192 192 190 189 184 175 156 167 178 154 127 143 157 186 240 227 194 188 184 175 167 159 136
321 310 288 265 251 242 227 214 212 219 224 221 213 213 211 207 204 201 196 194 193 194 191 184 181 180 173 167 163 154 137 85 113 155 189 211 233 217 206 194 184 166 139
349 347 338 317 288 267 244 231 222 223 223 217 213 214 213 208 204 201 195 195 193 191 189 185 181 180 177 164 158 153 152 154 172 164 167 178 213 265 271 233 196 174 150
Height
1513 1515 1518 1521 1524 1527 1530 1533 1535 1536 1538 1539 1540 1541 1541 1542 1542 1543 1543 1543 1543 1543 1544 1545 1546 1547 1548 1548 1548 1549 1549 1550 1550 1551 1551 1551 1552 1552 1552 1552 1553 1553 1554
1513 1515 1518 1521 1524 1527 1530 1533 1535 1537 1538 1539 1540 1541 1541 1542 1542 1542 1542 1543 1543 1544 1545 1547 1547 1548 1549 1549 1549 1549 1549 1550 1551 1551 1552 1552 1552 1553 1553 1553 1553 1554 1554
1513 1515 1518 1522 1525 1528 1531 1533 1535 1537 1538 1539 1540 1541 1541 1541 1541 1542 1543 1543 1544 1545 1546 1548 1549 1549 1550 1550 1550 1550 1551 1551 1552 1553 1553 1554 1554 1554 1555 1555 1555 1555 1555
1514 1516 1519 1522 1526 1528 1531 1533 1535 1537 1538 1539 1540 1540 1541 1541 1541 1542 1543 1544 1545 1546 1547 1549 1550 1550 1551 1551 1551 1552 1552 1553 1554 1554 1555 1555 1555 1556 1556 1556 1556 1556 1557
1514 1517 1520 1523 1526 1529 1531 1533 1535 1536 1538 1539 1540 1540 1541 1541 1541 1542 1543 1544 1546 1547 1548 1549 1550 1551 1551 1552 1552 1553 1554 1555 1555 1556 1556 1557 1557 1557 1558 1558 1558 1558 1558
1515 1517 1520 1523 1526 1529 1531 1533 1535 1536 1537 1539 1540 1540 1541 1541 1542 1543 1544 1545 1546 1548 1549 1550 1551 1552 1552 1553 1554 1554 1555 1556 1557 1557 1558 1558 1558 1558 1559 1559 1559 1558 1558
1515 1518 1521 1524 1526 1529 1531 1533 1535 1536 1537 1539 1540 1541 1542 1542 1543 1544 1544 1546 1547 1548 1550 1551 1552 1552 1553 1554 1554 1556 1557 1557 1558 1558 1558 1559 1559 1559 1559 1559 1559 1559 1559
1516 1519 1521 1524 1527 1529 1531 1533 1535 1536 1537 1539 1540 1541 1542 1543 1544 1544 1545 1546 1548 1549 1550 1551 1552 1553 1554 1554 1555 1556 1557 1558 1559 1559 1559 1559 1559 1559 1559 1559 1559 1559 1559
1517 1519 1522 1524 1526 1529 1531 1532 1534 1536 1537 1539 1540 1541 1543 1544 1544 1545 1546 1547 1548 1550 1551 1552 1553 1554 1554 1555 1556 1557 1558 1559 1559 1559 1559 1559 1559 1559 1559 1559 1559 1558 1558
1517 1519 1522 1524 1526 1528 1530 1532 1534 1535 1537 1538 1540 1541 1543 1544 1545 1546 1547 1548 1549 1550 1551 1552 1553 1554 1555 1556 1556 1557 1558 1559 1559 1559 1559 1559 1559 1559 1558 1558 1558 1558 1557
1517 1519 1521 1523 1525 1528 1529 1531 1533 1534 1536 1537 1539 1541 1542 1543 1545 1546 1547 1548 1549 1550 1552 1553 1553 1554 1555 1556 1557 1557 1558 1558 1559 1559 1559 1559 1558 1558 1557 1557 1556 1556 1556
1515 1517 1520 1522 1524 1526 1528 1530 1532 1533 1535 1536 1538 1539 1541 1543 1544 1545 1547 1548 1549 1550 1551 1552 1553 1554 1555 1556 1557 1557 1558 1558 1558 1558 1558 1558 1557 1556 1556 1555 1555 1554 1554
1514 1516 1518 1521 1523 1525 1526 1528 1530 1532 1533 1534 1536 1538 1540 1541 1543 1544 1546 1547 1548 1549 1551 1552 1553 1554 1555 1555 1556 1556 1557 1557 1557 1557 1557 1556 1556 1555 1554 1554 1553 1553 1552
1513 1515 1517 1519 1521 1523 1524 1526 1528 1529 1531 1533 1534 1536 1538 1539 1541 1542 1544 1546 1547 1548 1549 1551 1552 1553 1554 1554 1555 1555 1556 1556 1556 1555 1555 1555 1554 1554 1553 1552 1552 1551 1551
1511 1513 1515 1517 1519 1520 1522 1524 1525 1527 1529 1531 1532 1534 1535 1537 1539 1540 1542 1544 1545 1547 1548 1549 1551 1552 1553 1553 1554 1554 1554 1555 1554 1554 1554 1553 1553 1552 1552 1551 1551 1550 1550
1509 1511 1512 1514 1516 1518 1519 1521 1522 1524 1526 1528 1529 1531 1532 1534 1536 1538 1540 1541 1543 1545 1546 1547 1549 1550 1551 1552 1552 1553 1553 1553 1553 1552 1552 1552 1551 1551 1550 1550 1549 1549 1548
1507 1508 1509 1511 1513 1514 1516 1517 1519 1521 1523 1524 1526 1528 1529 1531 1533 1535 1537 1539 1541 1542 1544 1545 1546 1547 1549 1550 1550 1551 1551 1551 1550 1550 1550 1550 1549 1549 1548 1548 1547 1547 1547
1503 1504 1506 1507 1508 1510 1511 1513 1515 1517 1519 1521 1522 1524 1526 1527 1529 1531 1533 1535 1538 1539 1541 1542 1544 1545 1546 1547 1548 1548 1548 1548 1548 1548 1548 1547 1547 1547 1546 1546 1545 1545 1544
1498 1499 1500 1502 1503 1505 1507 1508 1510 1512 1514 1516 1518 1520 1521 1523 1525 1526 1528 1531 1534 1536 1537 1539 1540 1542 1543 1544 1545 1546 1546 1546 1545 1545 1545 1544 1544 1544 1544 1543 1543 1542 1542
1491 1493 1494 1496 1498 1499 1501 1503 1504 1506 1508 1510 1512 1514 1516 1518 1520 1522 1524 1527 1529 1531 1533 1534 1536 1538 1539 1541 1542 1542 1543 1542 1542 1542 1542 1541 1541 1541 1541 1540 1540 1539 1539
1484 1486 1487 1489 1491 1493 1494 1496 1497 1498 1501 1503 1506 1508 1511 1513 1515 1517 1519 1521 1523 1525 1527 1530 1532 1533 1535 1537 1538 1538 1539 1539 1538 1538 1538 1538 1538 1538 1538 1537 1537 1536 1535
1476 1478 1480 1482 1484 1486 1487 1489 1490 1492 1494 1496 1499 1502 1505 1507 1509 1511 1513 1515 1517 1519 1522 1524 1526 1528 1530 1532 1533 1534 1535 1535 1533 1534 1534 1534 1534 1534 1534 1534 1533 1532 1531
1469 1471 1473 1475 1478 1480 1481 1483 1484 1485 1486 1489 1491 1494 1497 1500 1502 1504 1506 1509 1511 1513 1514 1517 1519 1522 1524 1526 1528 1529 1529 1528 1529 1529 1529 1529 1530 1529 1530 1529 1529 1528 1527
1464 1466 1467 1469 1471 1473 1475 1475 1476 1477 1478 1480 1483 1486 1489 1492 1495 1497 1499 1502 1504 1506 1507 1510 1512 1515 1517 1519 1521 1522 1524 1524 1524 1524 1525 1525 1525 1525 1525 1525 1524 1523 1522
1462 1462 1463 1464 1465 1467 1468 1469 1470 1470 1472 1474 1476 1478 1481 1484 1486 1489 1492 1494 1496 1498 1501 1503 1505 1508 1510 1512 1514 1515 1517 1518 1519 1519 1519 1520 1520 1520 1520 1520 1519 1518 1517
1460 1460 1460 1460 1461 1461 1462 1462 1463 1464 1465 1466 1468 1470 1472 1475 1477 1480 1483 1486 1488 1491 1493 1496 1498 1501 1503 1505 1507 1509 1510 1511 1512 1513 1514 1514 1515 1516 1516 1515 1514 1513 1512